Theta_e
309 310 311 312 311 309 309 309 309 309 308 309 310 311 312 312 312 311 310 309 306 306 307 308 308 308 308 307 307 305 303 301 300 299 299 298 298 298 298 298 297 297 298 298 298 298 298 298 298 298 298 298 297 297 298 300 301 301 301 302 301 301 301 302 304 306 307 310 314 317 318 318 319 322 323 323 323 324 324 324 324 324 324 324 323 323
309 308 311 311 309 307 307 306 306 307 307 309 311 312 312 312 312 310 309 308 306 305 307 307 307 308 307 306 306 304 302 300 299 298 298 298 298 298 298 297 297 297 298 298 297 298 298 298 298 298 297 297 297 297 298 299 299 299 299 300 300 300 300 300 302 303 304 306 309 312 316 317 317 319 321 322 323 324 324 324 323 323 323 321 321 322
309 308 309 309 306 304 305 304 305 307 309 310 311 312 312 312 311 310 309 308 306 305 306 307 307 307 306 306 305 303 301 299 298 298 298 297 297 297 297 297 297 297 297 297 297 297 297 297 297 297 297 297 297 297 298 298 299 298 298 298 299 299 299 300 300 301 302 303 304 307 311 315 316 316 318 320 321 323 324 324 323 323 323 322 320 320
306 307 307 306 305 305 306 306 306 308 310 311 311 311 311 311 310 310 309 307 305 305 305 306 306 306 306 307 305 303 301 300 300 299 298 298 297 297 297 297 297 296 296 296 296 296 297 296 297 297 297 297 296 297 297 298 298 298 298 298 298 299 299 299 299 300 300 301 302 304 308 311 314 315 316 317 319 321 322 323 323 323 323 323 322 320
306 306 304 305 306 307 308 309 310 310 310 312 311 310 311 309 308 308 307 305 305 306 305 305 304 304 305 306 306 303 302 301 300 298 298 298 297 297 297 297 297 296 296 296 296 296 297 297 296 296 296 296 296 296 296 297 297 297 297 298 298 299 299 299 299 299 299 300 301 303 305 308 311 313 315 316 318 320 322 322 322 323 323 323 323 321
307 305 303 307 308 309 310 309 311 310 309 311 310 308 308 308 307 306 306 305 305 306 306 303 302 303 304 306 306 304 301 299 298 297 297 297 297 297 297 296 296 296 296 296 296 296 296 296 296 296 296 296 296 296 296 296 297 297 297 297 298 299 298 298 298 299 299 299 300 302 303 305 308 310 312 315 316 318 320 321 321 322 323 323 323 321
306 304 305 309 309 310 310 309 310 309 309 310 308 306 306 307 306 305 306 305 304 305 306 304 301 302 303 306 306 302 299 298 297 296 296 296 296 296 296 296 296 296 296 295 295 295 295 296 296 295 295 296 296 295 296 296 296 296 297 297 298 298 298 298 299 299 299 299 300 300 302 304 306 308 310 312 314 315 318 319 320 320 321 322 322 322
306 305 307 309 308 308 309 309 309 307 308 310 307 305 306 306 305 305 306 305 304 305 305 305 303 302 304 307 305 301 299 297 296 295 296 296 296 295 295 295 295 295 294 294 294 294 294 295 295 295 295 295 295 295 295 296 296 296 296 297 297 298 298 298 298 299 299 299 299 300 301 302 303 306 308 310 312 313 315 318 320 320 320 321 321 322
307 307 308 307 307 307 308 308 306 306 309 309 305 304 305 304 304 306 305 304 304 304 303 304 305 304 306 306 303 301 299 297 295 295 295 295 295 295 295 295 294 294 294 294 293 294 294 294 294 294 295 295 295 295 295 295 296 296 296 296 297 297 298 298 298 298 299 299 299 299 300 300 301 302 304 307 310 311 313 317 320 320 320 320 321 321
305 304 305 305 306 307 307 304 304 305 306 304 303 303 305 305 305 306 304 303 303 303 302 303 305 304 303 303 301 300 298 296 295 295 295 295 295 295 294 294 294 294 294 294 293 294 294 294 294 294 294 294 294 295 295 295 295 296 296 296 296 297 297 297 298 298 299 298 299 299 299 300 300 300 301 303 306 309 311 314 317 319 320 320 320 320
303 302 303 305 306 305 304 302 302 302 301 300 303 304 304 304 303 302 302 302 302 303 304 303 302 299 298 300 300 299 296 295 294 294 295 295 294 294 294 293 293 293 293 293 293 294 294 293 293 293 293 293 293 294 294 294 295 295 295 295 296 296 296 297 297 298 299 299 299 299 299 300 300 299 299 301 303 305 307 310 314 317 320 320 320 319
305 305 305 305 304 303 304 304 303 302 302 302 303 302 301 301 300 300 300 301 300 302 303 301 298 296 296 298 298 296 295 294 294 294 294 294 294 293 293 293 293 293 293 293 293 293 293 293 293 293 293 293 293 293 294 294 294 294 294 295 295 295 296 296 297 297 299 299 299 299 299 299 299 298 298 300 301 302 304 307 309 312 317 321 320 319
307 306 305 304 304 303 306 308 306 304 302 302 302 300 300 299 299 299 300 299 300 302 302 298 296 296 296 298 298 295 294 294 294 294 294 294 293 293 293 293 293 293 293 292 292 292 292 293 293 293 293 293 293 293 294 294 294 294 294 294 294 294 295 296 296 297 298 299 299 299 299 298 298 298 298 298 299 300 302 304 305 307 312 318 320 318
308 306 303 305 305 302 304 307 306 303 300 301 302 300 298 297 297 298 299 298 298 300 298 295 296 296 297 299 299 296 294 294 294 294 294 294 293 293 293 293 293 292 292 292 292 292 292 292 293 293 293 293 293 293 293 293 294 294 294 293 294 294 294 295 296 297 297 299 299 299 299 298 298 298 297 297 298 299 299 300 302 303 305 312 318 319
307 308 305 305 306 302 302 302 302 301 299 300 301 299 298 297 296 297 297 297 297 298 298 297 297 297 298 300 298 295 294 295 294 294 294 294 293 293 293 292 292 292 292 292 292 292 292 292 292 292 292 293 293 292 292 293 293 293 293 293 293 294 294 294 295 296 297 298 299 299 298 298 298 298 297 297 296 297 297 298 299 301 302 305 312 318
306 307 303 302 301 299 299 300 300 299 299 299 299 299 299 299 298 297 298 297 296 296 298 298 298 298 298 298 296 294 294 294 294 294 293 293 292 292 292 292 292 291 291 292 292 291 292 292 293 293 293 292 292 292 292 292 292 292 292 292 293 293 293 293 294 296 296 297 298 299 299 298 298 298 297 297 296 296 297 297 298 299 300 301 305 313
305 306 303 300 299 296 295 298 298 298 299 298 297 298 298 297 297 296 297 298 296 296 298 297 297 297 297 297 295 294 294 294 293 293 292 292 292 292 292 291 291 291 291 291 291 291 292 292 293 293 292 292 292 292 291 291 291 291 292 292 292 293 293 293 294 295 296 296 298 299 299 298 298 298 298 297 297 296 296 297 297 298 299 300 301 308
303 305 304 302 301 297 295 296 296 296 297 297 295 296 296 295 295 294 294 296 295 295 296 296 296 296 295 296 295 294 294 293 293 292 291 291 291 291 291 291 291 291 291 291 291 291 292 293 293 292 292 292 292 291 291 291 291 291 292 292 292 292 293 293 293 294 295 296 297 298 299 298 298 298 298 297 297 297 296 296 297 297 297 299 299 304
302 303 304 302 299 297 296 297 296 295 295 295 296 296 295 294 294 294 293 293 293 294 295 296 295 294 294 295 295 293 293 293 292 291 291 291 291 291 291 291 291 291 291 291 291 292 292 292 292 292 292 291 291 290 290 290 291 290 291 291 292 292 293 293 293 294 295 296 297 298 299 298 298 298 297 297 297 297 297 296 297 297 296 297 298 300
301 301 301 300 298 296 297 297 296 296 294 294 295 295 295 293 292 293 293 293 292 293 294 294 294 294 295 294 293 293 293 292 292 291 291 291 290 290 290 290 291 291 291 291 291 291 291 292 292 291 290 290 290 290 289 289 288 287 287 287 288 290 291 292 293 294 295 296 296 297 298 298 298 298 297 297 297 296 297 296 296 296 296 297 297 298
300 299 300 300 297 296 296 296 297 296 294 294 294 294 294 293 293 292 292 292 292 292 293 293 293 295 295 293 292 293 293 292 291 291 290 290 290 290 290 290 290 290 291 291 291 291 291 291 291 291 290 289 289 288 286 285 285 284 284 285 286 287 289 291 293 293 294 295 296 297 298 298 298 298 298 297 297 296 296 295 295 296 296 296 296 297
298 299 300 299 297 297 297 295 295 295 295 294 294 294 294 293 292 292 292 292 292 292 292 291 292 293 293 293 292 292 292 292 291 291 290 290 290 290 290 290 290 290 291 291 291 291 291 290 290 290 289 288 287 285 284 282 282 282 283 284 285 286 287 290 292 293 293 294 295 296 297 297 297 298 298 297 297 296 295 295 295 295 295 295 295 296
297 297 298 298 297 296 294 292 292 294 295 294 294 294 294 293 292 291 291 292 291 291 292 291 291 293 293 293 293 292 292 291 291 291 290 290 290 290 290 290 290 290 291 291 290 290 290 290 290 288 287 286 284 283 282 281 281 281 282 282 284 285 286 287 289 291 292 294 295 295 296 297 298 298 297 297 297 296 295 295 295 295 295 294 295 296
297 295 295 297 296 292 290 291 292 292 293 293 293 293 293 293 293 292 291 291 291 292 292 292 293 294 293 293 293 292 292 291 291 291 290 290 290 290 290 290 290 290 290 290 290 289 289 289 289 287 285 284 283 282 281 281 280 280 280 280 281 282 284 285 286 287 290 292 294 295 295 296 297 297 297 297 297 297 296 295 295 294 294 294 294 295
297 295 295 295 295 292 291 292 292 291 292 292 292 293 293 292 292 292 292 292 292 292 292 292 292 293 293 293 293 292 291 291 290 290 290 290 290 290 290 290 290 290 290 289 289 289 289 288 287 285 283 282 282 281 281 281 281 280 279 280 280 280 280 281 282 283 286 288 291 294 295 296 296 297 297 297 297 297 296 295 295 294 294 294 294 295
295 295 295 295 295 294 294 294 294 293 292 292 292 292 292 292 292 292 291 292 293 293 292 292 292 292 293 293 292 291 291 290 290 290 290 290 290 290 290 290 290 289 289 289 288 288 287 286 285 284 283 281 280 280 280 280 280 279 278 279 279 279 279 279 279 280 282 284 286 288 291 294 295 296 296 297 297 297 296 295 295 294 294 294 294 294
295 294 294 294 294 294 294 293 293 292 291 291 292 292 292 292 292 292 291 291 292 291 291 292 292 291 292 291 291 291 290 290 290 289 289 289 290 290 290 290 289 288 288 288 287 286 285 284 282 282 282 281 280 279 279 278 279 279 278 277 277 278 278 278 278 278 279 281 282 284 287 290 292 294 295 296 296 296 295 295 295 294 293 294 294 293
295 293 293 294 294 293 293 293 292 291 291 291 292 292 292 292 293 293 292 291 291 291 291 292 291 291 292 291 290 290 290 290 289 289 289 289 289 290 289 288 288 288 287 287 286 284 283 282 281 281 281 280 279 278 278 277 277 277 277 276 276 276 276 276 277 277 278 279 280 281 283 285 289 292 294 296 296 295 295 295 294 294 293 293 293 293
293 293 293 293 294 293 292 292 292 291 291 291 291 292 292 292 293 293 292 291 291 291 291 291 291 291 291 290 290 290 290 289 289 289 289 290 290 289 288 287 287 287 286 285 284 283 281 281 280 280 280 279 278 277 277 276 276 276 276 275 275 275 276 276 276 277 277 278 278 279 280 282 284 287 290 293 295 295 295 294 294 294 293 293 293 293
292 293 292 292 293 293 291 292 292 291 291 292 291 292 292 292 292 292 291 291 291 291 291 290 290 290 290 290 290 290 290 290 289 289 290 290 289 288 287 287 286 286 284 283 282 281 280 279 278 278 279 278 277 276 275 275 274 275 274 274 274 275 275 276 276 276 277 277 277 278 278 279 280 282 284 288 292 294 294 294 293 293 293 292 293 293
292 293 293 292 293 293 292 292 292 292 292 292 291 291 291 291 291 291 291 291 291 291 290 290 290 290 290 290 290 290 290 289 289 290 290 289 288 287 287 286 285 284 283 282 281 279 279 278 277 277 277 277 276 275 274 274 274 273 273 273 274 274 275 275 276 276 277 277 277 278 278 278 279 280 282 284 288 290 291 292 292 292 292 292 293 293
292 293 292 292 293 293 292 292 291 291 291 291 291 291 291 291 291 291 291 291 290 290 290 290 290 290 290 290 290 289 289 289 290 290 289 288 287 287 286 285 284 283 281 280 280 279 278 277 277 276 276 275 275 274 273 273 273 273 273 273 273 274 274 275 275 276 276 277 277 277 278 278 278 279 280 282 284 287 288 289 290 291 292 292 292 293
293 293 292 292 292 292 292 290 290 290 290 291 292 291 291 291 291 290 290 290 290 289 289 290 290 290 290 290 289 289 289 289 289 289 288 287 287 286 285 284 282 281 280 279 279 279 278 277 276 275 275 274 274 273 273 272 272 272 272 272 273 273 274 274 275 276 276 277 277 277 278 278 278 279 279 280 282 285 286 288 289 290 291 291 292 293
294 293 292 292 292 292 291 289 289 291 291 292 292 292 291 290 290 290 289 289 290 290 289 289 289 290 290 289 289 289 289 289 289 288 287 287 286 286 284 282 281 280 279 278 277 277 277 276 275 275 274 273 273 272 272 272 272 272 271 272 272 273 273 274 275 275 276 277 277 277 278 278 278 278 279 280 282 284 286 287 288 289 291 291 292 293
294 292 292 293 292 291 290 289 291 293 292 291 290 290 290 289 289 289 289 289 289 289 289 289 289 289 289 289 289 289 289 289 288 286 286 287 286 285 282 281 280 279 278 277 276 275 276 275 274 274 273 272 272 271 271 271 271 271 271 271 272 272 272 273 274 275 276 277 277 277 278 278 278 278 278 280 282 284 285 287 288 289 290 291 292 293
293 292 292 292 291 291 291 291 293 293 291 289 290 290 290 289 289 289 289 290 289 289 289 289 289 289 289 289 290 289 288 287 286 286 287 287 285 283 281 280 279 278 277 277 276 275 275 274 273 273 272 272 271 271 271 270 270 270 270 270 271 271 272 272 274 275 276 277 277 278 278 278 278 278 279 280 283 285 287 287 288 289 290 291 293 293
293 292 292 292 292 292 291 291 292 291 291 291 290 290 289 289 289 289 289 290 290 289 289 289 289 289 289 289 289 288 287 286 286 287 287 286 283 282 280 279 278 277 277 276 275 274 274 273 272 272 271 271 270 270 270 270 270 270 270 270 270 271 271 272 273 274 275 277 278 278 278 278 279 279 279 280 282 286 288 289 289 290 291 292 293 293
292 292 292 292 293 292 290 291 292 291 292 291 290 289 290 289 289 289 289 290 290 289 289 289 289 289 289 289 288 286 286 286 287 288 287 284 282 280 279 278 278 277 276 275 274 274 273 272 272 271 271 270 270 270 269 269 269 269 269 269 270 270 271 271 272 273 274 276 277 278 278 279 279 279 280 281 282 285 288 290 291 291 292 293 293 293
291 291 291 292 292 291 290 291 292 291 292 291 289 289 289 289 289 289 289 290 289 289 289 289 289 289 289 288 286 285 285 286 287 287 285 282 280 279 278 277 277 276 275 274 274 273 273 272 271 271 270 270 270 269 269 268 268 268 269 269 269 270 270 271 272 272 273 273 275 277 278 279 279 279 280 282 283 284 287 290 292 293 293 293 293 293
291 291 292 291 291 291 290 290 291 291 291 290 289 289 288 288 289 288 289 290 289 289 289 289 289 288 288 286 285 285 285 286 286 285 283 280 278 278 277 276 276 275 274 273 273 273 272 271 270 270 270 269 269 269 268 268 268 268 268 269 269 270 270 270 271 271 271 272 273 275 277 279 279 280 280 281 282 284 287 291 292 293 293 292 293 293
291 291 292 291 291 291 291 291 290 290 290 290 290 289 288 288 289 289 289 290 290 290 290 289 288 287 286 284 284 284 284 284 283 281 280 278 277 277 276 275 275 274 273 273 272 272 272 271 270 270 269 269 269 268 268 268 268 268 268 268 269 269 269 269 270 270 270 271 272 273 276 278 279 280 280 281 282 284 287 290 292 292 292 292 293 293
291 290 290 291 292 291 292 292 290 290 290 290 290 289 288 288 289 290 291 290 290 290 289 287 287 286 285 283 282 282 282 281 280 279 278 276 276 275 275 274 274 273 272 272 271 271 271 270 270 269 269 269 268 268 268 267 267 267 267 267 268 268 268 268 269 269 270 270 271 272 274 276 279 280 281 282 283 284 286 288 290 291 291 292 292 293
291 290 290 291 291 291 291 290 289 290 291 290 289 289 288 289 289 290 290 290 290 289 287 287 286 284 282 281 281 280 279 278 278 277 276 275 274 274 273 273 273 272 271 271 270 270 269 269 269 268 268 268 268 268 267 267 267 267 267 267 267 267 267 268 268 268 269 269 270 271 273 275 277 280 282 283 284 285 286 287 288 290 290 291 292 293
292 291 291 291 291 290 290 290 290 291 291 290 289 289 290 290 290 290 290 290 290 288 285 285 285 283 280 279 278 278 277 277 277 276 274 274 273 272 272 272 271 271 270 270 269 269 268 268 268 268 268 268 267 267 267 266 266 266 266 266 266 266 267 267 267 268 268 269 270 271 273 274 276 279 283 284 285 285 286 287 288 289 290 291 292 293
292 292 292 292 291 290 290 290 290 290 290 290 290 290 290 291 291 290 289 289 289 286 284 283 283 281 278 277 276 276 276 276 276 274 273 272 272 271 271 271 270 270 269 268 268 268 268 268 267 267 267 267 267 266 266 266 265 265 265 265 266 266 266 266 267 267 268 269 270 271 272 274 276 279 283 286 286 287 287 288 289 290 290 292 293 294
292 292 291 291 291 291 291 291 291 290 289 289 290 290 290 290 289 288 288 288 287 284 282 281 280 279 276 275 274 275 275 275 274 272 271 271 270 270 270 270 269 269 268 267 267 267 267 267 267 266 266 266 266 266 266 265 264 264 265 265 265 265 266 266 266 267 268 269 270 271 272 274 276 278 283 286 287 288 288 289 289 290 291 292 293 294
292 291 290 290 291 291 291 292 292 291 290 290 290 290 289 288 286 285 286 286 284 281 279 278 277 276 274 273 273 273 274 273 272 271 270 269 269 269 269 269 268 267 267 266 266 266 266 266 266 265 265 265 265 265 265 265 264 264 264 264 265 265 265 266 266 267 268 269 270 271 272 274 276 279 284 287 288 288 289 289 289 290 291 292 294 295
292 292 290 290 291 291 291 291 292 292 291 291 290 290 289 287 285 283 283 282 280 278 277 276 275 274 273 273 272 272 271 271 270 269 268 268 268 268 268 267 267 266 266 266 266 265 265 265 265 264 264 264 265 265 265 264 263 263 264 264 264 264 265 265 266 267 268 269 270 272 273 275 278 281 285 288 290 290 290 290 290 291 292 293 294 295
292 291 291 291 291 291 291 291 291 291 291 290 290 290 289 288 285 282 280 278 277 276 275 275 274 273 272 272 271 270 269 269 268 268 267 267 267 267 267 266 266 265 265 265 265 265 265 264 264 264 264 264 264 264 264 263 263 263 263 263 263 264 265 265 267 268 270 272 273 274 275 277 280 282 285 288 290 291 291 292 292 292 292 293 294 295
291 291 291 291 291 291 291 291 291 291 290 290 291 290 287 285 283 281 279 277 276 275 274 273 273 272 271 270 270 268 267 267 267 267 267 266 266 266 265 265 265 265 265 264 264 264 264 264 263 263 263 263 263 263 263 262 262 263 263 263 263 263 264 265 268 271 273 275 276 277 278 280 282 284 286 288 290 291 292 292 292 292 293 293 293 294
291 291 291 291 291 291 291 292 292 291 290 291 291 288 284 281 281 281 279 278 276 275 273 272 271 271 270 269 268 267 266 267 267 267 266 265 265 265 264 264 264 264 264 264 263 263 263 263 263 262 262 263 262 262 261 261 262 262 262 262 262 263 264 266 268 271 273 275 276 278 280 282 284 285 286 288 289 291 292 292 293 293 293 293 293 294
Wind_Speed
2 3 2 1 4 7 6 3 4 5 4 6 7 6 8 10 7 8 11 6 11 14 9 10 14 8 10 14 9 15 14 14 12 11 10 9 8 8 8 9 9 10 10 12 16 17 18 19 21 22 22 25 28 30 30 30 31 31 29 29 29 30 32 32 31 32 32 30 28 25 24 25 26 28 32 36 38 38 37 39 39 38 37 34 38 38
2 3 1 0 3 4 4 2 3 4 4 5 6 7 8 8 9 11 9 5 11 11 10 16 17 8 10 12 10 15 12 13 11 11 10 10 9 7 8 9 9 8 8 11 15 17 19 19 21 21 22 24 26 28 30 30 31 32 29 28 28 28 29 30 29 30 32 32 31 30 27 27 30 29 29 32 35 37 39 42 43 44 40 31 33 39
3 2 2 2 2 1 0 0 2 4 5 5 5 6 7 6 10 9 2 4 10 8 10 17 15 9 9 6 13 13 12 12 9 10 9 9 10 9 9 9 9 10 11 13 15 18 21 21 20 21 21 22 23 24 25 27 29 29 29 29 28 27 26 26 28 30 31 33 36 34 30 27 28 31 31 32 33 34 37 40 43 46 46 37 33 38
4 2 3 2 2 2 1 1 2 4 4 3 4 5 6 7 9 5 1 9 12 7 8 14 12 8 2 8 13 10 10 10 6 7 8 8 10 10 8 8 10 12 13 14 15 17 19 20 20 20 20 20 21 22 23 25 25 25 27 29 29 27 25 24 26 29 30 34 38 38 33 28 25 28 32 34 34 33 36 39 41 42 45 45 39 35
6 3 3 2 2 1 3 2 1 4 4 1 2 3 5 7 7 7 10 16 13 4 3 11 12 3 5 6 7 8 8 8 6 7 10 10 9 9 8 9 10 11 13 14 16 16 17 20 22 22 22 22 21 21 23 24 24 24 25 27 28 26 24 24 25 27 29 31 34 36 36 32 26 25 26 29 31 30 32 37 40 41 41 44 43 37
4 2 1 1 2 2 3 4 1 2 6 3 2 2 5 7 8 11 14 15 12 5 5 11 11 3 3 3 7 7 5 6 7 10 12 11 10 9 10 11 11 12 12 13 16 17 19 22 24 25 25 23 23 23 23 24 25 25 25 26 27 26 24 25 24 25 26 26 27 29 31 29 25 23 22 24 28 29 31 34 37 40 40 41 44 42
1 2 1 1 1 2 3 4 1 1 5 4 1 2 4 6 9 12 13 10 8 9 5 8 6 8 5 2 9 8 6 6 7 9 11 10 10 10 11 11 13 14 14 16 19 21 23 25 25 26 26 24 24 25 24 24 26 27 27 25 26 26 24 24 23 22 22 22 23 25 27 27 26 23 24 27 31 32 33 34 34 37 40 42 46 45
2 1 0 2 2 2 4 4 1 1 4 2 1 2 4 7 11 12 11 7 7 10 6 2 5 8 7 2 9 8 5 5 8 11 12 11 12 13 13 14 16 18 18 19 21 23 25 27 28 28 29 28 27 26 24 25 26 28 29 28 26 27 26 25 23 21 19 19 20 22 23 26 27 27 27 30 33 34 34 33 32 34 36 39 44 45
1 1 1 2 1 2 3 2 2 2 2 1 1 3 5 6 10 10 9 9 7 7 6 4 5 6 6 2 5 6 4 6 10 12 13 13 14 14 15 18 20 20 20 21 21 23 25 29 32 33 32 32 30 26 23 25 26 27 29 30 28 28 28 28 26 23 20 18 18 18 19 22 26 30 31 31 31 33 33 33 33 33 33 34 41 43
1 1 1 0 2 2 1 2 2 2 1 2 2 4 5 6 8 7 7 8 6 5 8 5 2 4 6 4 2 2 4 6 9 10 11 12 13 15 17 20 21 20 19 19 21 23 28 32 35 36 36 36 35 31 27 26 26 26 29 30 30 30 29 29 28 24 22 20 18 17 18 20 23 29 32 32 31 32 32 32 33 34 33 34 40 41
1 1 1 1 1 1 4 3 2 3 1 4 3 3 5 6 6 6 5 4 4 4 5 2 3 2 6 3 1 1 4 5 8 9 10 12 15 17 19 19 20 19 17 19 20 23 30 35 36 37 37 38 39 37 35 32 29 28 29 30 30 31 30 30 30 26 22 20 18 17 17 18 19 25 29 30 30 31 33 33 32 32 34 34 38 40
1 2 1 0 1 1 3 2 1 1 3 3 2 6 7 5 4 5 4 1 2 3 3 6 3 3 7 3 3 5 4 6 7 10 12 15 18 19 19 19 19 18 18 20 19 20 26 30 34 37 37 39 39 38 38 37 34 32 33 33 32 33 33 32 32 30 25 21 18 17 16 16 17 21 24 25 27 29 31 31 32 32 31 34 37 39
1 3 1 1 0 0 2 3 3 3 1 2 4 5 5 5 4 4 4 2 5 4 6 5 4 5 10 8 3 7 5 6 7 10 12 15 18 19 19 19 17 16 19 20 18 19 21 23 28 35 37 39 39 38 38 39 38 36 36 36 34 34 35 33 32 32 30 24 20 18 17 16 16 19 22 24 26 27 29 29 30 33 30 30 36 38
1 2 0 2 2 0 2 2 2 1 3 4 3 2 2 4 6 6 6 5 6 4 4 2 3 5 10 6 6 7 5 6 8 11 10 12 15 17 18 18 17 17 19 18 18 20 20 23 30 35 38 39 39 41 41 41 42 40 39 39 37 36 36 34 32 33 32 27 23 20 18 16 16 17 21 24 25 26 29 30 30 31 32 29 31 39
3 2 1 2 1 1 0 1 2 1 3 3 3 0 2 1 4 6 5 5 8 9 6 4 3 4 5 1 9 5 2 6 10 11 8 11 14 16 17 17 17 18 19 18 19 21 22 28 35 37 39 41 41 44 43 42 43 43 43 43 41 39 38 36 33 33 33 30 25 21 19 17 16 16 19 22 24 26 29 30 31 33 33 34 31 36
4 4 2 2 1 1 2 1 2 1 3 3 2 2 3 1 4 6 3 2 5 10 9 4 4 3 1 6 9 2 5 10 13 11 11 15 17 17 17 17 17 18 19 19 20 22 25 31 37 39 41 42 43 45 45 44 44 44 45 45 43 41 39 38 35 33 34 33 28 23 21 20 17 16 17 19 23 26 28 28 30 33 34 35 38 33
3 2 4 2 1 4 2 0 1 2 0 3 2 2 1 2 2 5 4 1 2 8 7 4 6 7 2 6 7 2 10 14 13 13 15 19 20 20 18 17 18 19 21 22 23 24 25 30 36 41 43 43 43 46 47 46 46 45 43 43 43 42 39 38 36 34 34 34 31 26 23 21 19 18 17 18 22 23 26 29 27 30 34 34 39 36
2 2 3 3 3 4 2 2 6 4 3 1 2 1 3 3 2 1 2 2 4 8 6 6 10 9 6 2 2 5 13 15 15 17 20 21 22 22 20 20 21 22 24 26 26 26 26 30 37 42 44 45 45 46 47 47 45 43 41 40 42 42 41 39 37 36 34 33 32 28 25 24 21 20 20 19 20 20 23 27 25 26 34 34 37 41
1 3 3 2 3 4 1 1 5 3 4 2 2 1 1 3 3 3 1 3 6 8 7 8 11 9 7 3 2 8 14 15 17 20 22 24 23 22 22 23 24 25 25 25 25 25 25 29 39 45 46 46 49 49 46 42 39 38 39 41 42 42 41 39 37 36 34 32 32 29 27 26 24 22 22 22 20 19 20 23 25 26 32 34 35 41
0 2 1 2 3 3 2 3 3 3 3 2 0 1 0 2 2 2 1 1 5 7 7 8 10 6 3 1 4 11 13 14 18 20 21 23 23 22 21 22 23 24 23 23 23 26 27 30 40 48 46 46 48 46 40 37 38 41 43 45 46 46 43 40 37 35 34 32 32 31 29 27 25 24 23 24 23 22 22 24 27 26 29 32 32 38
2 2 2 3 2 2 3 3 3 4 4 3 4 4 3 1 2 1 1 2 3 6 6 7 10 6 2 3 7 11 11 12 18 21 20 21 23 23 22 23 24 24 24 24 23 26 29 32 40 46 45 43 39 35 36 39 41 41 41 41 42 42 42 40 37 35 35 33 31 31 31 29 28 25 24 24 25 25 26 27 28 26 27 33 34 35
3 2 2 4 4 5 2 2 2 2 4 5 6 5 4 4 3 3 4 3 2 4 4 5 11 10 2 1 5 6 7 12 18 21 20 21 23 24 23 25 26 25 25 26 27 26 25 28 36 42 43 41 36 33 37 40 39 37 35 35 34 34 35 36 36 36 35 34 33 32 31 31 29 26 24 24 25 26 27 27 28 28 28 34 36 34
1 1 3 4 4 2 2 4 3 4 5 4 4 4 4 4 4 3 5 2 1 4 4 5 11 9 0 2 2 4 9 15 18 19 20 20 22 24 25 26 27 26 26 26 28 27 23 28 36 37 38 38 35 37 39 36 34 35 35 35 34 32 32 32 34 36 36 35 35 34 32 31 29 27 26 25 24 27 28 28 28 29 28 32 36 34
2 2 3 4 2 3 3 3 3 1 4 5 3 5 5 4 4 4 5 4 3 5 6 6 10 7 3 5 2 8 14 17 16 18 21 20 20 23 26 27 26 26 27 27 27 25 26 31 33 29 31 34 34 37 39 37 35 35 35 35 34 34 34 33 33 35 35 35 35 35 34 33 30 27 26 24 24 25 27 29 28 28 29 30 34 35
2 3 3 2 3 2 2 3 3 1 3 4 4 7 7 5 4 2 4 3 4 8 9 7 9 8 2 1 9 14 15 18 18 19 20 19 20 23 24 25 25 25 27 28 29 29 31 32 27 24 29 34 37 39 40 39 37 36 36 36 35 35 35 34 35 36 36 35 34 33 32 33 32 30 27 25 24 24 25 28 28 27 28 29 31 35
2 2 3 3 6 6 5 3 2 4 5 4 5 8 9 8 8 5 4 5 6 7 9 9 9 11 10 12 17 16 17 20 21 20 20 20 22 24 22 23 24 24 27 29 29 30 31 29 26 27 32 36 39 40 39 39 39 37 36 36 35 35 33 32 33 34 35 34 34 33 32 32 32 32 31 28 25 26 28 28 28 26 27 28 29 34
1 2 5 8 10 9 8 4 4 5 5 6 7 9 10 10 11 8 5 6 7 5 8 12 13 15 18 18 17 18 19 21 20 21 23 22 23 24 23 23 24 24 25 26 26 27 29 28 28 30 35 38 39 39 39 39 40 39 38 37 36 35 34 33 32 32 33 33 32 32 32 32 32 32 34 32 28 30 32 29 27 26 26 28 28 33
2 2 7 11 13 11 9 6 2 3 7 9 8 10 10 10 11 10 8 9 8 6 10 13 11 13 17 17 18 20 19 18 20 22 23 22 22 22 23 26 27 26 26 26 27 30 30 30 30 30 34 39 40 40 40 39 39 39 38 37 36 36 35 35 33 32 32 31 30 29 30 33 33 31 32 33 31 31 32 29 26 26 26 28 27 31
2 3 5 7 11 10 7 9 6 5 9 9 10 14 13 10 11 12 13 14 11 9 13 14 14 16 17 17 19 20 17 17 21 22 23 22 21 22 24 26 26 26 28 29 29 31 29 29 31 31 33 39 40 40 40 39 39 39 37 36 36 37 37 36 35 33 32 31 30 29 29 32 35 34 32 31 28 29 29 28 26 26 27 27 27 30
2 2 3 4 7 8 7 10 11 10 10 10 12 17 15 12 14 13 13 15 15 17 19 18 20 21 17 15 17 17 16 16 18 19 21 21 20 23 26 26 25 26 28 29 29 30 30 29 30 30 33 37 39 40 40 39 39 39 37 37 36 37 37 37 36 34 33 32 31 30 30 30 33 36 36 33 29 26 25 25 25 27 27 28 28 29
2 1 2 1 4 6 8 11 11 10 10 10 13 18 16 14 15 15 13 12 13 16 18 17 19 17 12 11 14 16 15 16 17 19 20 18 19 23 24 24 26 26 26 28 29 29 30 31 31 31 32 36 40 42 40 40 41 40 38 37 36 36 37 36 36 35 34 35 34 33 33 31 30 33 34 34 32 29 27 27 27 28 28 29 29 29
4 2 2 1 4 4 5 8 8 7 7 10 15 20 19 13 12 11 9 9 10 13 14 13 13 11 9 11 14 17 18 18 18 18 18 17 19 22 23 23 25 25 25 27 29 30 31 32 33 33 34 38 42 43 42 41 42 40 38 38 37 37 37 36 36 36 36 37 37 35 35 33 31 31 32 33 33 32 32 32 32 31 29 29 30 28
4 3 2 2 3 2 4 4 3 3 5 8 11 14 14 11 11 10 8 10 13 12 10 9 9 10 11 13 15 18 20 19 17 15 15 17 19 19 21 22 23 24 24 24 27 31 32 31 33 36 39 42 44 45 44 42 41 40 39 39 39 38 38 38 37 37 37 37 37 36 36 34 32 32 33 33 32 32 33 33 33 32 31 30 30 28
4 4 2 2 2 1 2 1 2 6 8 4 2 5 6 7 10 11 10 10 12 11 10 10 12 13 12 13 14 17 19 18 15 15 17 17 15 15 18 21 22 23 23 22 24 29 30 30 35 42 44 45 46 46 45 42 41 41 40 40 39 38 38 39 38 37 37 36 36 35 35 35 35 34 33 32 31 31 32 32 32 33 31 30 29 27
6 4 2 2 2 1 1 1 5 8 4 1 1 3 3 5 9 11 11 13 13 13 13 14 14 13 11 12 13 15 17 16 15 18 19 14 9 12 16 18 21 23 24 23 23 26 30 34 39 44 47 48 47 46 44 42 41 42 41 39 39 38 38 39 38 37 37 36 36 35 35 35 35 34 32 32 30 29 31 32 31 31 30 29 28 27
6 5 3 2 2 1 1 4 6 4 5 5 7 5 2 4 8 8 10 11 11 12 12 12 12 12 12 13 12 11 15 17 15 15 13 7 6 12 14 14 18 21 22 24 24 26 33 40 43 44 47 48 48 45 44 43 43 42 42 41 39 38 38 37 37 37 36 35 34 34 33 33 33 32 31 31 29 28 29 30 29 30 30 28 28 27
6 5 2 2 2 2 3 5 4 6 8 8 7 3 3 3 4 4 7 8 7 9 8 8 10 12 12 12 11 10 13 15 13 10 7 8 12 16 16 15 18 20 22 27 30 30 36 43 45 45 47 48 47 45 43 43 42 42 42 41 39 38 37 36 35 35 35 35 34 33 32 31 31 31 30 29 28 27 26 26 26 28 27 25 25 25
6 5 4 3 3 2 2 5 5 4 5 4 5 5 4 3 2 1 5 8 5 8 6 6 10 12 12 11 10 10 11 11 11 9 11 15 18 20 20 20 23 25 28 32 35 35 40 45 46 46 47 47 45 43 42 42 42 41 40 38 37 37 35 34 34 34 34 34 34 33 32 30 28 28 27 26 26 27 26 25 24 25 24 23 23 24
5 5 4 4 4 2 3 5 5 4 4 3 8 8 6 6 5 2 5 6 4 8 6 6 9 11 10 9 10 9 8 9 10 10 13 17 19 20 20 20 24 28 32 34 35 35 40 46 47 45 46 45 43 42 43 42 41 38 36 37 37 35 33 33 34 35 35 35 36 35 33 30 28 27 26 25 25 27 27 26 23 22 22 22 22 24
6 5 5 7 7 6 5 5 4 4 5 4 7 8 8 8 6 2 5 4 5 6 5 4 6 10 7 6 8 6 5 7 10 12 14 16 19 20 20 20 22 27 31 34 36 38 42 45 44 43 44 44 42 45 46 43 39 36 35 37 36 33 32 34 36 38 37 37 36 35 33 30 27 26 25 25 26 28 27 23 20 18 19 21 22 22
6 5 6 8 8 8 9 7 5 5 6 8 7 6 9 9 5 3 5 1 2 2 2 2 5 8 5 5 6 5 6 8 10 13 15 15 17 20 23 25 26 26 27 30 34 37 40 43 43 43 43 41 41 45 45 40 37 35 35 35 34 33 36 38 39 39 38 36 36 35 34 31 27 26 26 25 26 27 25 21 17 17 19 20 21 21
6 4 5 7 7 8 9 6 4 6 8 9 8 6 9 7 4 5 3 2 1 4 3 2 5 6 4 5 6 6 9 10 11 13 14 14 16 18 21 26 28 28 29 31 34 36 38 41 44 44 44 43 41 41 41 39 37 36 35 34 35 38 41 40 39 39 38 37 36 35 34 32 28 27 26 25 23 23 24 21 19 19 20 21 20 20
7 5 4 6 6 6 7 4 2 5 6 8 9 7 6 7 4 2 1 1 2 2 2 4 5 4 4 6 7 8 11 11 12 13 13 14 15 16 19 24 25 26 29 32 35 38 38 40 41 42 45 44 41 40 41 39 37 36 35 35 39 42 42 40 39 39 37 36 35 35 34 32 30 28 26 25 23 22 22 22 21 20 20 20 19 18
6 6 4 5 5 5 5 6 6 5 4 8 9 5 7 8 3 1 3 3 2 3 1 3 3 2 3 5 8 10 11 11 11 12 13 14 15 16 18 22 24 27 29 30 33 37 38 38 41 44 46 44 42 41 39 36 36 37 37 38 41 43 42 41 41 38 36 35 34 33 32 30 28 28 26 24 23 21 21 21 20 20 20 19 18 16
7 6 2 2 5 5 4 6 6 4 3 6 5 3 5 5 2 1 3 4 2 1 2 2 3 2 2 4 7 8 9 10 11 12 13 15 15 15 18 22 24 27 28 30 33 37 37 38 41 44 45 45 44 41 36 34 36 38 39 41 43 42 42 43 41 37 35 34 32 31 30 29 28 28 25 22 21 19 19 18 17 17 17 17 16 14
5 3 1 0 3 4 5 6 7 5 6 8 7 2 3 3 2 3 4 3 2 2 1 2 3 2 2 3 5 6 8 10 11 12 13 14 15 15 17 21 24 26 28 30 32 36 37 38 39 40 42 44 45 41 37 37 37 37 40 43 43 42 43 42 40 37 34 33 30 28 28 27 26 26 24 21 20 19 18 17 15 15 15 14 14 13
4 4 3 3 4 4 5 7 9 7 7 9 6 2 1 3 3 4 4 2 2 2 1 1 2 2 2 3 4 7 9 10 11 12 12 12 14 15 16 19 23 26 29 31 33 36 37 36 37 39 41 42 44 43 42 41 39 38 41 42 43 44 44 41 38 35 32 30 28 26 25 24 22 22 20 18 18 17 17 17 17 16 15 13 12 11
4 5 4 6 8 7 6 8 6 3 3 5 5 3 3 4 4 4 3 3 3 2 1 2 1 2 3 3 3 6 9 10 11 12 12 12 12 13 15 19 23 26 28 30 32 35 35 34 35 38 39 40 41 43 44 43 42 42 42 43 45 45 43 39 35 32 31 32 29 24 22 21 20 20 19 15 14 14 15 16 17 16 16 16 15 11
3 4 4 5 8 6 7 10 7 3 3 7 8 7 5 5 6 6 4 4 3 3 2 2 3 3 3 3 3 4 8 9 9 11 13 13 12 13 16 21 24 26 27 29 32 33 33 34 35 37 39 38 39 42 44 45 46 45 44 47 49 45 40 41 40 35 35 35 28 22 20 18 18 18 17 15 15 15 17 18 18 18 18 20 21 19
3 5 5 4 4 5 7 8 5 3 4 7 7 6 5 6 8 7 6 5 5 5 4 4 4 4 4 4 3 3 7 9 9 11 13 12 12 15 19 22 24 24 26 28 31 32 33 35 36 37 38 37 38 42 44 45 46 46 48 51 51 46 45 47 42 35 33 31 26 22 19 16 15 15 15 14 14 15 17 20 22 23 22 22 23 23
6 7 7 6 6 7 7 5 4 4 6 4 3 6 6 7 8 7 7 7 6 6 6 5 5 5 5 5 4 5 6 9 11 12 12 12 13 16 19 21 23 24 25 26 28 30 33 34 36 37 37 36 37 41 43 44 45 48 53 59 58 54 54 51 38 27 26 28 26 26 24 17 14 13 13 13 14 13 14 15 18 22 26 27 25 24
Wind_Direction
319 327 340 320 353 341 329 304 286 303 294 284 296 285 290 301 295 298 303 346 9 339 326 332 333 336 318 332 47 102 95 83 80 66 57 50 45 43 38 31 21 18 10 0 360 358 354 350 347 347 349 351 353 354 352 349 348 347 346 345 346 347 345 344 341 340 336 329 324 318 312 306 293 272 252 247 242 234 230 229 229 225 220 218 211 206
285 328 36 80 360 336 316 285 269 284 271 275 294 296 300 302 305 304 293 345 11 343 320 325 333 345 323 336 80 105 88 83 72 60 56 42 43 40 30 24 12 10 1 355 358 358 356 352 348 347 347 347 349 350 350 350 347 346 346 344 342 343 345 344 341 339 336 330 325 318 310 305 302 292 271 256 245 237 233 231 231 229 224 219 209 206
326 335 90 68 59 114 69 189 243 277 276 286 305 301 303 321 322 307 231 13 355 328 316 326 330 327 325 24 93 98 92 95 81 72 63 42 41 30 22 18 4 1 355 353 355 354 355 352 349 347 343 343 343 341 342 345 344 343 344 342 340 340 342 343 341 338 333 329 326 319 310 303 301 300 290 276 261 245 235 232 231 230 228 226 215 208
312 350 80 91 141 170 203 165 236 284 273 287 324 305 309 343 340 316 297 334 322 286 303 321 316 304 331 92 95 98 107 113 107 84 62 46 39 23 15 5 354 352 349 349 349 348 349 348 349 346 340 338 335 334 337 339 339 338 337 337 336 336 338 340 340 338 334 330 329 324 319 312 305 302 299 292 278 257 241 236 234 231 230 229 222 212
281 338 59 116 131 182 296 278 266 309 300 317 23 331 321 337 328 303 310 321 316 283 330 334 319 286 127 111 111 119 118 111 91 50 36 37 33 18 11 360 350 345 341 342 342 343 343 344 347 346 341 336 328 327 332 334 333 331 329 330 331 331 333 336 338 338 336 333 331 328 325 324 321 313 305 297 286 268 249 236 232 231 230 228 224 214
273 349 26 122 91 49 326 312 2 337 304 310 88 29 325 317 313 310 317 327 322 307 52 14 331 283 97 98 141 135 105 83 55 31 25 23 20 11 4 359 352 344 340 340 342 343 342 343 346 344 339 332 326 325 326 327 326 323 322 324 326 327 327 330 334 336 337 334 330 327 325 323 322 316 307 298 291 281 264 245 233 230 229 227 224 215
272 44 14 85 64 36 350 306 323 119 292 302 79 6 314 305 312 315 321 329 311 301 12 32 309 273 314 81 138 129 100 81 43 27 24 16 14 8 359 356 352 348 349 348 348 346 342 342 343 341 337 331 326 323 321 320 320 321 320 320 322 323 322 323 327 331 334 333 329 327 323 320 319 315 310 304 298 292 279 259 240 231 229 228 224 218
146 148 97 56 46 1 311 296 41 124 276 297 84 320 306 310 312 312 315 302 285 304 315 185 226 269 300 157 143 133 109 66 29 18 14 11 9 4 0 359 356 354 353 349 346 344 340 338 337 335 333 330 325 320 316 315 315 317 318 318 318 319 319 319 320 323 326 327 327 325 324 322 322 318 313 309 304 300 290 270 249 235 230 227 223 219
118 187 78 29 342 295 289 324 63 183 231 33 46 280 279 295 298 299 299 288 292 320 304 227 208 263 280 205 140 123 89 21 14 8 5 7 3 360 359 357 356 354 351 346 341 338 336 335 333 331 329 327 325 320 312 310 310 310 313 315 314 314 315 317 317 317 317 319 320 321 323 322 323 323 319 315 311 307 297 278 258 242 231 226 222 217
60 345 34 237 264 265 119 78 64 134 125 347 306 259 258 274 281 277 278 292 310 298 282 276 205 265 280 274 277 111 87 16 0 359 3 3 359 359 357 354 353 350 346 341 335 333 332 330 329 327 326 325 324 321 314 309 306 306 308 310 310 309 309 311 311 308 307 312 313 316 320 318 322 328 325 321 318 315 309 291 268 248 232 225 221 215
38 343 280 212 296 354 116 112 77 82 8 290 283 298 299 293 283 273 275 302 308 265 258 211 122 327 297 272 275 102 85 29 358 353 357 358 358 358 354 350 347 343 338 334 330 329 327 326 324 323 322 321 321 319 316 311 306 303 304 303 304 304 302 303 306 302 297 301 304 308 315 314 318 327 326 323 320 318 318 307 288 264 237 224 222 216
94 167 183 80 356 40 136 150 151 152 273 276 5 357 331 307 270 259 263 216 255 262 178 160 115 332 277 262 105 113 80 31 6 358 356 358 358 354 347 342 340 336 332 329 327 326 325 323 323 322 320 318 317 315 313 311 307 303 302 300 298 299 299 298 300 300 295 292 293 296 304 308 311 322 325 321 318 316 316 312 306 291 256 227 220 216
187 148 32 348 18 286 200 184 175 184 289 24 37 12 332 315 313 283 278 250 258 253 158 148 10 313 266 274 156 132 74 24 8 6 3 360 353 345 340 335 333 332 328 327 325 325 324 321 321 320 318 316 314 313 311 310 308 303 301 299 296 295 296 294 293 296 294 288 288 290 295 303 306 315 321 319 317 314 313 311 312 309 286 245 220 212
209 128 291 231 160 8 240 209 215 206 47 43 46 27 331 330 327 300 298 299 283 264 169 152 344 276 267 271 165 140 55 15 8 11 7 356 343 336 332 327 327 328 324 324 323 323 323 320 319 318 317 316 315 313 311 311 310 306 302 300 296 292 292 291 286 288 291 285 281 283 286 294 299 306 315 318 317 313 312 311 308 308 305 282 238 212
247 240 191 193 175 74 97 37 360 67 77 70 95 167 265 287 284 284 305 312 304 304 283 239 205 245 288 147 150 149 34 7 6 5 354 342 334 330 327 322 325 325 322 322 320 321 322 320 319 318 317 316 315 314 312 311 311 309 305 301 297 293 291 291 285 282 285 283 277 275 276 283 287 293 305 311 314 314 311 310 308 305 305 301 276 228
245 259 74 55 307 46 90 59 10 95 119 106 124 226 249 204 241 268 302 295 292 301 293 241 206 254 271 139 146 150 352 0 359 349 337 333 330 329 325 323 325 323 322 323 320 321 322 321 321 320 318 314 313 314 312 310 310 308 305 300 297 294 290 290 286 278 280 281 277 268 267 274 277 282 291 299 308 314 310 305 304 304 301 303 298 258
243 255 93 110 47 48 26 119 54 339 314 141 188 241 123 98 238 269 286 154 242 277 278 264 274 286 260 156 143 37 352 351 346 337 333 331 330 330 326 327 328 325 324 324 323 323 324 321 320 319 317 314 312 312 312 311 310 307 304 300 297 295 291 288 284 278 276 278 276 269 264 267 270 275 280 288 299 306 309 305 299 302 302 300 304 284
278 250 159 169 108 67 336 86 81 9 339 178 241 330 101 139 162 206 280 307 283 273 272 280 285 291 293 252 134 10 347 342 336 335 333 332 333 330 327 329 329 326 324 324 323 324 324 322 320 317 314 313 312 312 312 311 310 307 306 303 299 295 291 288 284 279 274 273 275 270 263 263 265 272 277 283 292 294 302 305 297 299 304 300 304 298
319 256 190 165 110 113 250 116 98 45 11 360 298 24 99 233 189 149 186 300 293 283 281 290 294 290 282 281 20 346 341 339 334 334 332 332 333 328 327 329 327 325 323 323 323 323 323 321 319 317 313 312 314 313 313 314 313 313 315 313 307 300 294 287 281 277 272 269 271 269 263 263 263 267 273 277 285 287 289 297 297 296 302 301 302 304
189 249 220 132 115 128 199 227 189 151 83 56 209 155 249 283 218 181 140 271 273 276 281 299 309 298 244 113 353 335 341 338 331 332 331 329 329 325 326 327 324 324 321 321 322 323 323 316 314 315 313 313 315 315 316 319 318 315 314 311 307 305 300 291 281 275 271 267 267 267 263 262 262 260 266 273 279 284 285 292 299 297 298 301 300 304
156 228 224 141 140 201 198 201 199 165 145 172 194 186 198 171 150 221 231 176 236 267 273 288 293 281 150 70 337 328 337 334 328 328 325 324 324 323 324 325 323 322 320 319 319 320 321 316 312 314 316 316 316 317 320 319 314 309 307 304 300 300 301 297 288 280 273 268 265 265 263 262 262 258 260 269 275 283 289 292 299 299 297 301 299 302
169 203 209 169 195 222 196 39 343 223 198 217 217 197 186 163 153 258 256 173 167 242 242 266 279 279 269 317 308 317 328 328 326 323 320 322 323 323 324 323 321 320 320 320 318 314 314 315 315 316 317 319 319 318 318 317 314 311 311 310 305 301 300 299 298 293 285 277 270 267 265 262 261 257 257 265 271 278 287 291 297 301 298 301 301 300
104 130 220 221 216 199 40 18 330 238 200 201 215 179 163 161 162 224 259 249 217 226 214 246 270 278 239 166 263 330 329 323 321 320 321 322 322 322 322 321 320 320 319 318 318 315 311 316 320 320 320 320 320 319 317 317 317 315 315 316 314 311 308 304 304 302 297 291 282 275 272 265 259 257 257 261 265 273 283 288 294 301 298 300 303 298
110 126 205 235 214 101 73 61 59 66 154 162 177 174 179 187 175 215 259 276 282 245 220 237 260 262 132 123 335 330 323 317 317 321 323 322 321 320 319 319 321 321 320 316 315 315 316 318 321 323 323 321 318 318 317 315 316 316 315 315 314 315 316 313 310 307 303 299 293 286 279 273 264 258 257 257 261 268 278 285 290 298 298 298 302 298
168 168 162 233 258 183 150 143 120 156 204 200 202 189 195 199 170 204 248 244 259 239 218 225 255 254 202 16 322 319 317 315 318 322 323 323 321 318 319 322 322 321 319 317 318 320 323 323 323 326 325 321 318 318 317 315 315 316 315 313 312 311 311 313 314 311 307 303 301 295 287 281 273 265 259 256 259 263 271 281 286 293 298 298 301 299
198 201 170 222 256 246 249 253 152 178 204 206 205 197 200 199 183 186 211 216 237 234 214 223 251 267 282 305 309 311 317 318 321 323 323 324 320 319 322 324 324 322 318 319 322 324 324 323 322 324 323 321 319 317 317 316 315 315 314 312 311 309 308 310 311 310 309 305 303 300 295 289 283 276 269 260 258 263 268 276 281 287 296 298 299 299
139 224 219 228 242 250 267 292 100 134 211 225 219 209 199 194 194 197 195 210 235 259 251 246 252 271 286 296 304 313 321 321 321 323 324 324 321 321 326 324 320 318 318 320 323 323 323 322 321 322 322 321 319 316 315 315 314 314 313 310 309 309 307 307 306 306 307 305 303 301 297 293 288 283 278 268 260 265 268 272 277 282 294 298 296 297
143 218 226 230 242 254 275 291 123 155 245 248 247 242 222 197 185 186 201 222 240 270 263 258 262 272 282 295 306 313 320 322 321 322 322 323 322 323 325 321 316 318 323 325 325 324 325 324 323 324 323 321 320 317 315 315 314 313 312 309 308 307 305 305 304 302 303 303 302 302 299 297 292 287 284 275 265 265 267 269 275 281 292 297 293 293
188 242 224 222 246 254 271 283 266 252 260 252 251 258 250 223 196 192 210 225 231 241 251 268 284 282 284 295 303 310 319 322 320 318 317 319 322 322 320 318 318 324 327 326 325 325 324 322 322 324 323 322 320 319 317 316 315 313 311 308 307 305 304 303 302 300 300 299 298 299 300 298 296 294 293 287 275 269 268 270 277 283 290 294 290 290
190 240 209 217 260 257 248 263 263 256 256 251 252 258 257 246 232 224 227 229 232 242 251 265 278 278 283 293 298 306 315 317 314 313 314 318 322 321 320 321 323 327 328 325 325 325 323 320 320 321 323 322 320 319 318 317 315 313 310 307 306 305 305 305 302 299 297 296 295 296 297 296 295 293 292 290 282 277 275 276 282 285 288 291 289 288
228 155 130 183 273 257 229 242 254 252 248 249 258 261 257 254 251 247 241 232 233 247 255 265 272 274 283 296 301 307 311 312 313 311 313 319 321 320 322 326 327 326 326 324 323 323 322 321 321 321 322 321 319 318 317 315 315 312 309 307 304 304 305 304 302 298 296 294 293 294 294 293 292 290 287 284 280 278 280 282 285 286 286 288 287 287
217 192 99 139 266 255 197 216 245 256 254 251 258 262 256 246 246 245 231 213 220 247 263 270 272 278 298 310 310 310 310 314 317 313 315 319 318 320 325 327 325 323 323 323 324 324 322 322 322 322 322 320 319 319 316 314 313 311 309 308 306 304 303 301 298 295 294 293 292 291 291 289 288 286 284 282 277 274 276 277 280 281 282 285 285 286
187 191 147 172 261 274 138 168 235 256 261 252 247 252 245 232 237 243 232 216 220 241 262 268 270 285 306 314 313 312 313 318 320 318 317 314 311 319 328 326 321 319 320 321 323 325 324 324 322 319 318 318 318 318 316 313 310 309 309 309 306 305 304 300 296 293 292 292 290 289 288 286 284 283 282 281 275 271 271 271 273 275 276 281 283 283
176 177 174 191 242 234 137 101 277 249 252 253 176 193 205 218 238 243 240 233 228 237 250 259 273 287 300 307 308 309 310 313 317 314 306 302 306 321 329 324 318 317 318 318 322 325 326 324 320 318 319 318 317 315 313 312 309 308 309 308 307 306 304 301 296 290 289 289 288 287 285 284 283 281 280 281 275 268 266 265 267 270 272 276 279 278
169 171 171 197 224 231 145 297 266 256 258 43 116 197 205 240 246 246 252 247 237 243 254 263 275 286 292 296 299 302 303 307 309 303 295 292 309 331 330 323 319 318 318 321 324 325 325 323 319 318 318 318 317 315 312 312 311 309 309 309 307 305 303 301 297 292 289 287 284 283 282 282 282 279 278 279 274 264 262 262 263 266 267 272 273 271
157 164 172 180 200 238 208 205 231 283 332 306 270 255 213 232 244 256 268 254 231 235 251 264 277 287 292 294 297 302 304 306 300 288 284 294 335 338 332 325 321 318 317 320 323 323 323 321 318 315 314 314 315 314 312 312 313 311 309 309 307 303 301 301 300 297 293 287 282 280 279 281 282 279 277 278 274 264 258 257 259 262 262 265 267 267
151 156 163 187 210 214 225 233 259 317 309 278 258 216 146 191 238 270 287 276 231 217 237 264 279 290 296 297 303 310 307 305 298 291 312 343 342 338 335 328 323 318 315 317 318 319 321 320 316 313 314 314 313 313 313 313 313 311 309 307 306 303 300 300 300 299 297 292 285 279 278 280 281 280 276 274 274 271 262 254 254 257 255 256 262 266
166 178 178 208 229 169 202 257 267 282 275 230 177 153 119 118 137 176 292 286 233 190 209 262 280 291 301 305 312 317 315 311 308 315 342 347 340 336 334 329 325 323 320 319 319 320 323 322 317 314 314 313 314 316 318 317 315 312 310 308 305 303 302 301 300 301 302 301 295 287 282 280 280 280 276 269 270 274 272 260 250 248 249 251 258 265
185 205 199 221 245 190 194 245 235 233 263 194 166 156 121 120 137 130 302 291 181 164 196 247 279 296 308 314 315 319 323 319 312 318 338 340 333 329 327 324 323 321 318 318 319 321 322 321 317 315 315 315 315 319 321 320 317 313 309 308 307 304 303 302 301 302 303 303 301 296 289 282 278 277 275 270 271 274 273 262 248 243 248 255 259 265
194 208 207 221 234 213 209 244 246 248 269 236 182 154 135 141 141 143 285 265 150 165 210 233 281 298 304 308 309 309 308 308 304 311 325 327 320 317 318 318 318 318 317 318 319 321 322 321 317 316 318 318 318 321 323 321 319 316 311 309 308 305 302 302 303 303 301 300 300 297 292 284 276 273 271 269 271 274 272 261 248 247 255 260 263 266
191 205 211 219 229 223 221 238 258 267 263 245 222 170 146 150 156 209 247 224 126 245 261 229 280 293 292 290 295 288 287 294 294 301 312 316 313 313 315 315 315 314 314 314 316 319 322 320 314 313 317 319 318 321 324 323 319 317 314 312 309 306 304 304 303 301 300 299 298 297 295 289 280 274 271 268 267 272 275 268 257 258 264 264 265 267
181 195 217 218 220 225 227 235 267 281 260 228 207 158 145 167 215 231 216 75 6 288 302 284 282 297 297 285 281 276 286 296 297 301 309 313 312 313 315 317 318 318 319 320 321 323 324 322 317 314 315 316 316 321 326 325 320 318 317 315 310 307 306 304 302 300 300 299 297 295 294 291 284 277 271 267 265 266 269 271 267 266 267 267 267 267
176 170 206 211 195 204 219 206 216 274 249 179 153 139 171 201 227 264 306 20 176 220 281 281 279 298 299 295 295 290 294 301 304 308 311 309 311 314 314 315 316 318 321 323 324 325 326 324 320 314 312 316 320 324 326 327 325 322 318 313 310 309 307 305 303 302 299 298 295 292 291 291 289 283 271 262 262 262 262 265 266 265 268 267 265 263
186 175 199 205 172 167 194 193 201 238 208 159 152 162 198 209 212 239 270 275 189 163 218 269 273 286 297 302 303 300 303 307 309 314 316 312 314 317 315 316 317 318 321 324 323 324 324 323 321 317 316 319 323 324 327 330 327 320 314 310 311 314 311 307 304 302 298 296 294 291 291 290 290 288 275 258 253 255 257 259 259 260 263 263 261 259
202 189 190 201 179 180 202 205 210 222 181 183 203 195 184 207 247 183 217 263 277 175 164 252 283 299 306 299 297 297 301 307 312 318 316 312 314 316 315 316 317 318 322 323 323 324 324 322 321 320 317 318 322 326 330 330 325 319 316 315 316 315 312 307 305 302 298 295 292 290 290 290 289 290 280 259 247 248 251 252 253 255 257 255 252 251
214 184 104 135 201 230 248 225 218 216 193 203 231 243 173 201 214 169 194 235 244 169 158 260 284 302 308 298 298 295 297 306 313 314 313 310 310 312 314 316 316 319 323 323 323 326 325 323 322 321 319 319 324 328 329 328 327 323 318 316 316 314 311 308 305 301 297 294 291 290 291 290 289 290 281 260 245 244 247 248 249 250 250 247 243 239
221 187 174 202 211 218 225 215 213 210 200 205 220 229 174 199 178 166 193 210 165 152 181 243 274 291 273 265 282 291 297 308 312 310 311 311 309 312 317 317 319 322 323 323 325 327 326 325 326 326 324 322 325 328 329 330 329 323 318 318 318 316 314 311 305 299 296 294 292 290 289 287 285 287 284 265 245 241 244 246 247 246 243 239 236 231
204 168 169 220 228 224 236 244 234 190 184 216 219 201 198 197 173 162 161 140 130 146 173 185 213 253 254 254 275 289 294 303 306 307 309 309 307 313 317 317 318 320 321 323 326 327 327 326 327 328 325 322 325 330 330 328 326 325 327 328 325 320 316 312 305 298 296 298 294 286 283 283 281 283 286 280 261 249 245 243 241 241 240 235 229 222
140 147 160 209 227 232 253 258 248 202 207 231 227 223 217 182 162 158 147 137 149 172 180 202 226 236 251 269 285 290 288 291 297 302 304 304 306 312 315 316 318 318 321 325 326 326 326 326 326 327 325 324 328 331 328 326 326 328 330 331 328 325 323 320 316 312 310 308 300 287 279 276 277 280 284 286 278 263 256 251 244 241 242 241 235 228
161 182 176 187 218 230 237 235 221 209 238 236 219 210 194 153 149 157 162 167 186 192 188 207 230 235 246 256 263 278 282 285 293 300 300 300 305 309 313 317 319 319 323 327 327 326 327 327 327 327 326 327 330 330 327 326 327 329 332 334 332 330 330 329 326 324 325 323 317 309 298 279 269 274 278 282 282 271 265 262 254 247 245 244 241 237
202 189 186 200 224 234 230 209 172 203 246 252 179 162 161 150 152 163 174 180 183 180 181 200 216 219 226 240 246 257 269 281 295 303 301 300 304 308 313 318 321 322 324 327 329 329 328 327 328 329 329 330 331 330 329 329 330 334 339 342 341 338 337 335 329 322 327 332 330 330 327 314 299 291 279 274 275 270 268 268 259 251 247 243 242 241